Weather History for Gillette, WY

Change the Weather History Date:

Friday, March 1, 2013

  Actual Average Record
Temperature  
Mean Temperature 32 °F 31 °F  
Max Temperature 42 °F 42 °F 65 °F (1992)
Min Temperature 21 °F 19 °F -18 °F (2014)
Degree Days  
Heating Degree Days 33 34  
Month to date heating degree days 33 34  
Since 1 July heating degree days 5156 5442  
Cooling Degree Days 0 0  
Month to date cooling degree days 0 0  
Year to date cooling degree days 0 0  
Moisture  
Dew Point 27 °F    
Average Humidity 74    
Maximum Humidity 84    
Minimum Humidity 64    
Precipitation  
Precipitation 0.01 in 0.02 in 0.20 in (1925)
Month to date precipitation 0.01 0.02  
Year to date precipitation 1.14 0.80  
Sea Level Pressure  
Sea Level Pressure 30.28 in    
Wind  
Wind Speed 9 mph (WSW)    
Max Wind Speed 16 mph    
Max Gust Speed 18 mph    
Visibility 9 miles    
Events Snow    
T = Trace of Precipitation, MM = Missing Value Source: NWS Daily Summary

Daily Weather History Graph

Daily Weather History Graph

Search for Another Location

Airport:

Trip Planner

Search our weather history database for the weather conditions in past years. The results will help you decide how hot, cold, wet, or windy it might be!

Date:

Astronomy

Mar. 01, 2013 Rise Set
Actual Time 6:38 AM MST 5:50 PM MST
Civil Twilight 6:09 AM MST 6:19 PM MST
Nautical Twilight 5:36 AM MST 6:53 PM MST
Astronomical Twilight 5:02 AM MST 7:27 PM MST
Moon 10:39 PM MST (3/1) 8:15 AM MST (3/1)
Length of Visible Light 12h 10m
Length of Day
11h 11m
Waning Gibbous, 83% of the Moon is Illuminated
Mar 1
Waning Gibbous
Mar 4
Last Quarter
Mar 11
New
Mar 19
First Quarter
Mar 27
Full

Hourly Weather History & Observations

Time (MST) Temp. Windchill Dew Point Humidity Pressure Visibility Wind Dir Wind Speed Gust Speed Precip Events Conditions
12:53 AM 28.4 °F 20.4 °F 21.2 °F 74% 30.21 in 10.0 mi West 8.1 mph - N/A   Overcast
1:53 AM 25.0 °F 16.3 °F 19.0 °F 78% 30.31 in 10.0 mi West 8.1 mph - N/A   Clear
2:53 AM 21.9 °F 14.5 °F 18.0 °F 85% 30.32 in 10.0 mi West 5.8 mph - N/A   Clear
3:53 AM 23.0 °F 15.8 °F 18.0 °F 81% 30.31 in 10.0 mi West 5.8 mph - N/A   Clear
4:53 AM 24.1 °F 12.5 °F 18.0 °F 77% 30.31 in 10.0 mi West 12.7 mph - N/A   Clear
5:53 AM 25.0 °F 14.8 °F 19.0 °F 78% 30.33 in 10.0 mi West 10.4 mph - N/A   Clear
6:53 AM 27.0 °F 17.3 °F 19.9 °F 75% 30.33 in 10.0 mi WSW 10.4 mph - N/A   Overcast
7:53 AM 28.9 °F 18.6 °F 21.0 °F 72% 30.35 in 9.0 mi WSW 12.7 mph - 0.00 in Snow Light Snow
8:53 AM 32.0 °F - 23.0 °F 69% 30.35 in 10.0 mi Calm Calm - 0.00 in   Overcast
9:53 AM 30.9 °F 24.3 °F 26.1 °F 82% 30.38 in 1.8 mi WSW 6.9 mph - 0.00 in Snow Light Snow
10:12 AM 30.2 °F 22.6 °F 28.4 °F 93% 30.26 in 2.5 mi WSW 8.1 mph - 0.01 in Snow Light Snow
10:16 AM 30.2 °F 23.4 °F 28.4 °F 93% 30.26 in 3.0 mi WSW 6.9 mph - 0.01 in Snow Light Snow
10:53 AM 33.1 °F 24.9 °F 28.0 °F 82% 30.35 in 10.0 mi WSW 10.4 mph - 0.01 in   Overcast
11:53 AM 34.0 °F 27.2 °F 28.9 °F 82% 30.34 in 5.0 mi SW 8.1 mph - N/A   Haze
12:39 PM 37.4 °F 31.4 °F 30.2 °F 75% 30.22 in 10.0 mi SSW 8.1 mph - N/A   Overcast
12:53 PM 37.0 °F 30.4 °F 30.0 °F 76% 30.30 in 10.0 mi SSW 9.2 mph - N/A   Mostly Cloudy
1:53 PM 37.9 °F 31.5 °F 30.9 °F 76% 30.28 in 10.0 mi SSW 9.2 mph - N/A   Overcast
2:53 PM 41.0 °F 37.1 °F 30.9 °F 67% 30.27 in 10.0 mi SSW 5.8 mph - N/A   Overcast
3:53 PM 42.1 °F 38.4 °F 33.1 °F 70% 30.27 in 10.0 mi South 5.8 mph - N/A   Overcast
4:53 PM 39.9 °F 33.9 °F 32.0 °F 73% 30.26 in 10.0 mi SW 9.2 mph - N/A   Overcast
5:53 PM 37.9 °F 32.7 °F 32.0 °F 79% 30.27 in 10.0 mi West 6.9 mph - N/A   Mostly Cloudy
6:53 PM 39.2 °F 32.0 °F 32.0 °F 75% 30.18 in 10.0 mi WSW 11.5 mph - N/A   Mostly Cloudy
7:53 PM 39.9 °F 33.9 °F 32.0 °F 73% 30.24 in 10.0 mi WSW 9.2 mph - N/A   Overcast
8:53 PM 39.9 °F 33.4 °F 30.9 °F 70% 30.24 in 10.0 mi WSW 10.4 mph - N/A   Overcast
9:53 PM 41.0 °F 33.9 °F 30.0 °F 65% 30.24 in 10.0 mi West 12.7 mph - N/A   Overcast
10:53 PM 39.0 °F 31.0 °F 28.9 °F 67% 30.24 in 10.0 mi West 13.8 mph - N/A   Clear
11:53 PM 37.4 °F 30.3 °F 28.4 °F 70% 30.19 in 10.0 mi West 10.4 mph - N/A   Clear